| time (UTC) | temp F | wind direction | speed MPH | gust MPH | rain 1hr in | rain 24hr in | rain mn in | humidity % | barometer mb |
| 20260505021023 | 54 | 335 | 4.0 | 6.0 | 0.00 | 0.00 | 0.00 | 67 | 1009.8 |
| 20260505020023 | 54 | 337 | 2.0 | 6.0 | 0.00 | 0.00 | 0.00 | 66 | 1009.8 |
| 20260505015024 | 54 | 327 | 4.0 | 6.0 | 0.00 | 0.00 | 0.00 | 65 | 1009.8 |
| 20260505014023 | 54 | 324 | 3.0 | 8.0 | 0.00 | 0.00 | 0.00 | 64 | 1009.8 |
| 20260505013023 | 55 | 269 | 2.0 | 11.0 | 0.00 | 0.00 | 0.00 | 63 | 1009.8 |
| 20260505012023 | 56 | 301 | 4.0 | 13.0 | 0.00 | 0.00 | 0.00 | 61 | 1009.8 |
| 20260505011023 | 57 | 319 | 7.0 | 15.0 | 0.00 | 0.00 | 0.00 | 58 | 1009.5 |
| 20260505010023 | 58 | 350 | 4.0 | 10.0 | 0.00 | 0.00 | 0.00 | 60 | 1009.5 |
| 20260505005023 | 58 | 15 | 3.0 | 8.0 | 0.00 | 0.00 | 0.00 | 62 | 1009.1 |
| 20260505004024 | 58 | 12 | 2.0 | 7.0 | 0.00 | 0.00 | 0.00 | 59 | 1009.1 |
| 20260505003023 | 58 | 11 | 4.0 | 9.0 | 0.00 | 0.00 | 0.00 | 58 | 1009.1 |
| 20260505002023 | 57 | 50 | 1.0 | 7.0 | 0.00 | 0.00 | 0.00 | 60 | 1009.1 |
| 20260505001023 | 57 | 26 | 4.0 | 6.0 | 0.00 | 0.00 | 0.00 | 59 | 1009.1 |
| 20260504234023 | 58 | 345 | 7.0 | 13.0 | 0.00 | 0.00 | 0.00 | 58 | 1008.8 |
| 20260504233023 | 59 | 355 | 9.0 | 11.0 | 0.00 | 0.00 | 0.00 | 50 | 1008.8 |
| 20260504232023 | 60 | 331 | 2.0 | 14.0 | 0.00 | 0.00 | 0.00 | 55 | 1008.8 |
| 20260504231023 | 61 | 272 | 13.0 | 15.0 | 0.00 | 0.00 | 0.00 | 50 | 1008.8 |
| 20260504225023 | 61 | 277 | 7.0 | 14.0 | 0.00 | 0.00 | 0.00 | 45 | 1008.8 |
| 20260504224023 | 62 | 304 | 7.0 | 11.0 | 0.00 | 0.00 | 0.00 | 45 | 1008.8 |
| 20260504223023 | 62 | 309 | 5.0 | 7.0 | 0.00 | 0.00 | 0.00 | 43 | 1008.5 |
| 20260504222023 | 61 | 74 | 4.0 | 9.0 | 0.00 | 0.00 | 0.00 | 44 | 1008.1 |
| 20260504221023 | 61 | 25 | 5.0 | 11.0 | 0.00 | 0.00 | 0.00 | 44 | 1007.8 |
| 20260504220023 | 61 | 6 | 9.0 | 16.0 | 0.00 | 0.00 | 0.00 | 44 | 1007.8 |
| 20260504215023 | 61 | 41 | 5.0 | 22.0 | 0.00 | 0.00 | 0.00 | 47 | 1007.8 |
| 20260504214023 | 63 | 18 | 10.0 | 21.0 | 0.00 | 0.00 | 0.00 | 45 | 1007.8 |
| 20260504213023 | 64 | 333 | 8.0 | 21.0 | 0.00 | 0.00 | 0.00 | 44 | 1008.1 |
| 20260504212123 | 62 | 356 | 13.0 | 17.0 | 0.00 | 0.00 | 0.00 | 40 | 1008.1 |
| 20260504210023 | 62 | 1 | 7.0 | 19.0 | 0.00 | 0.00 | 0.00 | 45 | 1008.5 |
| 20260504205023 | 65 | 13 | 9.0 | 15.0 | 0.00 | 0.00 | 0.00 | 41 | 1008.1 |
| 20260504203023 | 67 | 306 | 10.0 | 13.0 | 0.00 | 0.00 | 0.00 | 32 | 1007.8 |
| 20260504202023 | 68 | 167 | 4.0 | 9.0 | 0.00 | 0.00 | 0.00 | 32 | 1007.5 |
| 20260504195023 | 72 | 21 | 4.0 | 16.0 | 0.00 | 0.00 | 0.00 | 27 | 1007.5 |
| 20260504194023 | 71 | 0 | 10.0 | 15.0 | 0.00 | 0.00 | 0.00 | 27 | 1007.5 |
| 20260504193023 | 71 | 351 | 9.0 | 17.0 | 0.00 | 0.00 | 0.00 | 27 | 1007.5 |
| 20260504192023 | 70 | 310 | 7.0 | 13.0 | 0.00 | 0.00 | 0.00 | 25 | 1007.1 |
| 20260504191023 | 71 | 316 | 9.0 | 16.0 | 0.00 | 0.00 | 0.00 | 24 | 1007.1 |
| 20260504190023 | 71 | 329 | 2.0 | 12.0 | 0.00 | 0.00 | 0.00 | 24 | 1007.1 |
| 20260504185023 | 71 | 14 | 6.0 | 13.0 | 0.00 | 0.00 | 0.00 | 24 | 1007.5 |
| 20260504184023 | 70 | 351 | 8.0 | 14.0 | 0.00 | 0.00 | 0.00 | 27 | 1007.5 |
| 20260504183023 | 70 | 275 | 9.0 | 17.0 | 0.00 | 0.00 | 0.00 | 26 | 1007.5 |
| 20260504182023 | 70 | 302 | 9.0 | 15.0 | 0.00 | 0.00 | 0.00 | 27 | 1007.8 |
| 20260504180023 | 69 | 301 | 9.0 | 17.0 | 0.00 | 0.00 | 0.00 | 27 | 1007.8 |
| 20260504174023 | 68 | 277 | 8.0 | 22.0 | 0.00 | 0.00 | 0.00 | 30 | 1008.1 |
| 20260504173123 | 67 | 281 | 9.0 | 25.0 | 0.00 | 0.00 | 0.00 | 31 | 1008.1 |
| 20260504171023 | 66 | 269 | 6.0 | 12.0 | 0.00 | 0.00 | 0.00 | 32 | 1008.5 |
| 20260504160123 | 64 | 283 | 2.0 | 11.0 | 0.00 | 0.00 | 0.00 | 34 | 1008.8 |
| 20260504151023 | 60 | 227 | 4.0 | 7.0 | 0.00 | 0.00 | 0.00 | 38 | 1008.8 |
| 20260504141123 | 52 | 271 | 2.0 | 5.0 | 0.00 | 0.00 | 0.00 | 43 | 1008.8 |
| 20260504100122 | 47 | 184 | 5.0 | 7.0 | 0.00 | 0.00 | 0.00 | 48 | 1009.1 |
| 20260504090122 | 49 | 216 | 2.0 | 5.0 | 0.00 | 0.00 | 0.00 | 45 | 1009.5 |
| 20260504081022 | 52 | 272 | 5.0 | 6.0 | 0.00 | 0.00 | 0.00 | 42 | 1009.5 |
| 20260504070122 | 54 | 317 | 4.0 | 8.0 | 0.00 | 0.00 | 0.00 | 42 | 1010.2 |
| 20260504045022 | 60 | 311 | 8.0 | 10.0 | 0.00 | 0.00 | 0.00 | 33 | 1010.2 |
| 20260504042122 | 62 | 302 | 1.0 | 9.0 | 0.00 | 0.00 | 0.00 | 33 | 1009.8 |
| 20260504041022 | 62 | 282 | 5.0 | 8.0 | 0.00 | 0.00 | 0.00 | 33 | 1010.2 |
| 20260504040022 | 63 | 276 | 5.0 | 7.0 | 0.00 | 0.00 | 0.00 | 32 | 1010.2 |
| 20260504035022 | 63 | 282 | 1.0 | 6.0 | 0.00 | 0.00 | 0.00 | 32 | 1010.2 |
| 20260504034122 | 63 | 288 | 3.0 | 7.0 | 0.00 | 0.00 | 0.00 | 31 | 1010.2 |
| 20260504033022 | 63 | 260 | 5.0 | 6.0 | 0.00 | 0.00 | 0.00 | 31 | 1010.2 |
| 20260504032022 | 64 | 277 | 2.0 | 8.0 | 0.00 | 0.00 | 0.00 | 31 | 1010.2 |
| 20260504030122 | 64 | 253 | 3.0 | 5.0 | 0.00 | 0.00 | 0.00 | 29 | 1010.2 |
| 20260504025122 | 65 | 250 | 2.0 | 5.0 | 0.00 | 0.00 | 0.00 | 29 | 1010.2 |
| 20260504024022 | 65 | 229 | 0.0 | 6.0 | 0.00 | 0.00 | 0.00 | 29 | 1009.8 |
| 20260504023122 | 65 | 276 | 1.0 | 6.0 | 0.00 | 0.00 | 0.00 | 29 | 1009.8 |